sat.trackr.live / text

‹ back to catalog

STARLINK-32608

NORAD 62124 · 2024-222L

PAYLOAD ACTIVE UNKNOWN

§ Identity

Operator
Country
US
Launch date
2024-11-27
Launch site
AFETR
Launch vehicle
Mass (kg)
RCS (m²)

Purposes: comms

External: N2YO · Heavens-Above · Gunter

§ Orbital elements

Epoch: 2026-09-21T06:45:13.200192Z

Period
94.27 min
Inclination
43.0004°
Eccentricity
0.0000167
Mean motion
15.27596510 rev/d
Perigee alt
482.9 km
Apogee alt
483.1 km
Semi-major
6,861.1 km
B*
4.4265e-4
RAAN
111.4622°
Arg perigee
13.7215°
Mean anomaly
346.3641°
Rev number
10,265

§ Raw data

STARLINK-326081 62124U 24222L   26264.28140278  .00011945  00000+0  44265-3 0  99922 62124  43.0004 111.4622 0000167  13.7215 346.3641 15.27596510102650

JSON: /api/v1/satellites/62124 · /tle

For live sub-satellite position, see the globe view (requires WebGL).

§ Visibility from observer

Set your observer location to see the next 7 days of passes ≥ 10°. The values pass through the URL so the page stays shareable.

No JS? Fill the form by hand. The geolocation button needs JavaScript.